Flag for Germany Weather past 2 weeks in Stassfurt, Saxony-Anhalt, Germany

Now
69 °F

Scattered clouds.


Feels Like: 69 °F
Forecast: 55 / 73 °F
Wind: 2 mph from East

Location: Magdeburg

Current Time: Sep 16, 2014 at 12:34:03 PM

Latest Report: Sep 16, 2014 at 12:00 PM


Visibility: 5 mi

Pressure: 30.08 "Hg

Humidity: 77%

Dew point: 62 °F

Location of StassfurtLocation

Historic Weather in Stassfurt — Graph

°F

Stassfurt temperature yesterday

Maximum temperature yesterday: 72 °F (at 6:00 PM)
Minimum temperature yesterday: 61 °F (at 11:00 PM)
Average temperature yesterday: 64 °F

Past Weeks' High & Low Weather Summary

 TemperatureHumidityPressure
High80 °F (Sep 5, 4:00 PM)98% (Sep 6, 8:00 AM)30.29 "Hg (Sep 6, 8:00 AM)
Low52 °F (Sep 9, 4:00 AM)50% (Sep 3, 3:00 PM)29.85 "Hg (Sep 6, 6:00 PM)
Average62 °F83%30.08 "Hg
* Reported Sep 1 11:00 AM — Sep 16 11:00 AM, Stassfurt, Weather by CustomWeather, © 2014

Note: Actual official high and low records may vary slightly from our data, if they occured in-between our weather recording intervals... More about our weather records

Advertising

Stassfurt weather history for previous 24 hours

 ConditionsComfort  
Time TempWeatherWind HumidityBarometerVisibility
11:00 AM
Sep 16
65 °FFog.2 mph80%30.09 "Hg4 mi
10:00 AM63 °FFog.1 mph81%30.09 "Hg3 mi
9:00 AM59 °FFog.1 mph95%30.08 "Hg2 mi
8:00 AM54 °FFog.1 mph98%30.08 "Hg2 mi
7:00 AM54 °FFog.2 mph98%30.07 "Hg2 mi
6:00 AM54 °FFog.1 mph98%30.07 "Hg2 mi
4:00 AM55 °FFog.2 mph98%30.07 "Hg2 mi
3:00 AM55 °FFog.1 mph98%30.07 "Hg1 mi
2:00 AM57 °FFog.1 mph98%30.07 "Hg1 mi
1:00 AM57 °FFog.1 mph96%30.08 "Hg1 mi
12:00 AM60 °FClear.1 mph98%30.08 "HgN/A
11:00 PM
Sep 15
61 °FPassing clouds.2 mph98%30.08 "Hg1 mi
10:00 PM62 °FFog.2 mph96%30.08 "Hg1 mi
9:00 PM63 °FFog.1 mph94%30.07 "Hg1 mi
8:00 PM64 °FFog.1 mph92%30.07 "Hg1 mi
7:00 PM69 °FFog.1 mph82%30.06 "Hg3 mi
6:00 PM72 °FPartly sunny.1 mph73%30.06 "Hg4 mi
5:00 PM70 °FScattered clouds.1 mph76%30.07 "Hg4 mi
4:00 PM69 °FPartly sunny.1 mph79%30.08 "Hg4 mi
3:00 PM67 °FFog.1 mph84%30.09 "Hg3 mi
2:00 PM67 °FFog.2 mph87%30.10 "Hg3 mi
1:00 PM65 °FFog.1 mph91%30.10 "Hg2 mi
12:00 PM63 °FFog.1 mph96%30.11 "Hg1 mi
Weather by CustomWeather, © 2014

See weather overviewHow to use our weather pages